Location: Akgöl Batakl???
(38.9482°N, 31.8837°E)
Time: 16:05:00
(UTC+00:00)

Meteor 2-11 Rocket - Pass Details

Date: 08 May 2026
Orbit: 938 x 957 km, 82.5° (Epoch: 10 June)

Event Time Altitude Azimuth Distance (km) Brightness Sun altitude
Rises 23:08:57 0° 353° (N) 3,634 8.4 -30.7°
Reaches altitude 10° 23:11:28 10° 355° (N) 2,682 7.5 -30.5°
Maximum altitude 23:17:36 78° 82° (E) 972 4.4 -30.0°
Enters shadow 23:17:39 78° 86° (E) 972 4.4 -30.0°
